SCP
1 1 2 3 3 3 3 4 4 4 3 3 2 2 2 1 1 1 1 0 0 0 0 0 0 0 0 0 0 0 0 0 0 0 0 0 0 0 0 0 0 0 0
1 1 2 3 3 3 4 4 4 4 3 3 2 2 2 1 1 1 1 0 0 0 0 0 0 0 0 0 0 0 0 0 0 0 0 0 0 0 0 0 0 0 0
1 1 2 3 3 4 4 4 4 4 3 3 2 2 2 1 1 1 1 0 0 0 0 0 0 0 0 0 0 0 0 0 0 0 0 0 0 0 0 0 0 0 0
1 1 2 3 3 4 4 4 4 3 3 3 2 2 2 1 1 1 1 1 1 1 0 0 0 0 0 0 0 0 0 0 0 0 0 0 0 0 0 0 0 0 0
2 2 2 3 3 4 4 3 3 3 3 2 2 2 2 1 1 1 1 1 1 1 1 0 0 0 0 0 0 0 0 0 0 0 0 0 0 0 0 0 0 0 0
2 2 2 3 4 4 4 3 3 3 3 2 2 2 1 1 1 1 1 1 1 1 1 0 0 0 0 0 0 0 0 0 0 0 0 0 0 0 0 0 0 0 0
2 2 2 3 3 4 4 3 3 3 2 2 2 2 1 1 1 1 1 1 1 1 0 0 0 0 0 0 0 0 0 0 0 0 0 0 0 0 0 0 0 0 0
2 2 2 3 3 4 4 3 3 3 2 2 2 2 2 1 1 1 1 1 1 1 0 0 0 0 0 0 0 0 0 0 0 0 0 0 0 0 0 0 0 0 0
2 2 2 2 3 3 4 3 3 3 2 2 2 2 2 2 1 2 2 1 1 1 0 0 0 0 0 0 0 0 0 0 0 0 0 0 0 0 0 0 0 0 0
2 2 2 2 2 3 3 3 3 3 2 2 2 2 2 1 1 1 1 1 1 1 1 0 0 0 0 0 0 0 0 0 0 0 0 0 0 0 0 0 0 0 0
2 2 3 2 2 2 2 2 2 2 2 2 2 1 1 1 1 1 1 1 1 1 1 1 0 0 0 0 0 0 0 0 0 0 0 0 0 0 0 0 0 0 0
2 2 3 2 2 2 2 2 2 2 2 2 2 1 1 1 1 1 1 1 1 1 0 0 0 0 0 0 0 0 0 0 0 0 0 0 0 0 0 0 0 0 0
2 2 2 2 2 2 2 2 2 2 2 2 2 2 1 1 1 1 1 1 0 0 0 0 0 0 0 0 0 0 0 0 0 0 0 0 0 0 0 0 0 0 0
1 1 1 1 1 2 2 2 1 1 2 2 2 2 1 1 2 2 1 1 0 0 0 0 0 0 0 0 0 0 0 0 0 0 0 0 0 0 0 0 0 0 0
1 1 1 1 1 1 1 1 1 1 1 2 2 2 2 2 2 2 2 1 0 0 0 0 0 0 0 0 0 0 0 0 0 0 0 0 0 0 0 0 0 0 0
1 1 1 1 1 1 1 1 1 1 1 2 2 1 1 2 2 2 2 1 0 0 0 0 0 0 0 0 0 0 0 0 0 0 0 0 0 0 0 0 0 0 0
0 0 1 1 1 1 1 1 1 1 1 1 1 1 1 1 2 2 2 1 0 0 0 0 0 0 0 0 0 0 0 0 0 0 0 0 0 0 0 0 0 0 0
1 1 1 1 1 1 0 1 1 1 1 1 1 1 1 1 1 2 1 1 0 0 0 0 0 0 0 0 0 0 0 0 0 0 0 0 0 0 0 0 0 0 0
1 1 1 1 1 1 0 1 1 1 1 1 1 1 1 1 1 1 1 1 0 0 0 0 0 0 0 0 0 0 0 0 0 0 0 0 0 0 0 0 0 0 0
1 1 1 1 1 1 1 1 1 1 1 1 1 1 1 1 1 1 1 1 0 0 0 0 0 0 0 0 0 0 0 0 0 0 0 0 0 0 0 0 0 0 0
1 1 1 1 1 1 1 1 1 1 1 1 1 1 1 1 1 1 1 1 0 0 0 0 0 0 0 0 0 0 0 0 0 0 0 0 0 0 0 0 0 0 0
1 1 1 1 1 1 1 1 1 1 1 1 1 1 1 1 1 1 1 1 1 0 0 0 0 0 0 0 0 0 0 0 0 0 0 0 0 0 0 0 0 0 0
1 1 1 1 1 1 1 1 0 0 1 1 1 1 1 1 1 1 1 1 1 0 0 1 1 1 1 0 0 0 0 0 0 0 0 0 0 0 0 0 0 0 0
1 1 0 1 1 1 1 0 0 0 1 1 1 1 1 0 0 0 0 0 0 0 0 1 1 1 1 1 0 0 0 0 0 0 0 0 0 0 0 0 0 0 0
0 0 0 0 1 1 1 0 0 0 0 0 0 0 0 0 0 0 0 0 0 0 0 0 1 1 1 1 1 0 0 0 0 0 0 0 0 0 0 0 0 0 0
0 0 0 0 0 1 1 0 0 0 0 0 0 0 0 0 0 0 0 0 0 0 0 0 0 0 1 1 1 0 0 0 0 0 0 0 0 0 0 0 0 0 0
Wind_Speed
7 10 18 19 18 17 17 16 16 16 15 15 16 16 16 16 17 17 17 17 16 16 16 16 16 17 17 17 17 17 16 16 16 15 15 14 15 15 15 14 13 9 15
12 13 17 18 18 18 17 16 15 15 15 15 16 16 16 16 17 17 17 17 16 16 17 17 17 16 16 16 16 16 16 16 15 14 13 11 13 14 15 14 13 9 15
14 14 15 16 17 16 16 16 15 15 15 15 16 16 16 17 17 17 17 17 16 16 17 17 16 16 16 15 15 15 14 13 13 12 11 6 8 14 14 14 14 14 14
14 13 13 15 16 16 15 15 15 16 15 15 16 16 17 17 17 17 17 17 16 16 17 16 16 15 14 14 13 13 12 11 10 9 5 4 5 12 13 13 13 13 13
12 11 13 16 16 16 15 15 15 16 16 15 15 16 17 17 17 17 17 17 16 16 16 16 15 14 13 12 11 11 10 11 11 8 5 5 4 11 12 12 12 12 12
11 10 12 17 16 15 15 15 15 16 16 15 15 15 16 17 18 18 17 16 16 16 16 16 14 13 11 10 10 10 11 11 9 5 5 4 4 10 11 11 11 11 11
10 9 11 17 17 16 15 15 14 15 16 16 16 16 17 17 18 18 17 17 17 17 16 15 14 13 11 9 9 9 10 10 7 5 4 3 5 10 10 10 10 10 10
10 9 10 15 15 15 15 14 14 14 15 15 15 16 17 18 18 19 18 18 17 17 16 15 14 12 10 9 8 8 9 8 7 6 4 3 7 9 9 8 8 8 8
6 7 7 9 10 12 13 13 13 13 14 14 14 15 14 15 17 19 19 18 17 17 16 15 14 12 10 8 7 6 7 8 5 3 4 3 6 8 7 7 6 6 6
4 5 5 7 7 7 8 11 12 12 12 12 13 13 13 14 16 17 16 16 16 16 15 14 13 12 9 7 5 5 6 6 3 3 2 3 7 7 6 5 5 4 4
4 4 5 5 6 6 6 8 9 10 11 11 10 13 12 8 10 11 13 14 15 15 15 14 13 11 8 5 4 3 3 2 3 2 2 5 7 6 5 4 3 2 2
4 4 4 5 5 6 6 5 4 5 6 6 6 8 6 6 7 9 12 13 14 13 13 13 12 10 5 2 2 2 1 2 2 2 3 7 8 6 5 4 3 2 1
4 4 4 4 4 5 4 4 3 3 4 5 7 7 6 6 6 6 6 8 8 9 6 8 7 4 3 3 2 2 2 2 2 2 4 8 8 6 5 4 3 2 1
4 5 5 5 4 4 5 5 4 4 4 5 7 8 7 5 5 6 5 5 5 4 5 4 3 4 4 4 3 3 3 2 2 2 3 7 7 6 5 4 3 3 3
5 5 6 7 7 6 6 5 6 6 6 6 7 8 8 7 7 7 6 6 5 4 5 5 4 5 4 4 4 4 4 4 4 4 3 7 7 6 5 3 2 2 3
6 6 6 7 7 7 7 6 6 6 6 6 7 8 10 7 8 8 7 7 6 6 5 5 6 5 4 3 4 4 4 4 4 4 3 4 6 5 4 3 2 1 2
6 6 6 7 7 7 7 7 6 6 6 6 7 9 10 9 9 8 8 8 7 6 6 5 5 4 4 4 4 4 3 4 4 4 4 3 3 4 4 3 2 1 1
6 6 7 6 7 8 7 7 5 6 6 6 6 8 10 11 11 9 8 8 7 6 6 6 5 4 4 3 3 3 3 3 4 4 3 3 2 2 2 2 1 0 0
6 6 6 6 7 7 7 6 6 6 6 6 6 7 9 11 12 9 8 7 8 7 6 7 5 4 4 4 3 2 2 3 3 4 4 4 3 3 2 2 2 2 1
5 5 5 5 6 6 5 4 4 5 5 5 6 7 9 9 11 9 8 8 8 7 6 6 5 4 4 4 3 2 1 2 2 3 3 3 3 4 3 3 2 2 3
4 5 5 5 5 5 4 5 5 6 5 5 5 7 9 9 9 9 7 9 9 8 8 8 5 5 3 3 3 1 1 0 1 2 2 3 3 3 4 3 2 2 2
5 5 5 6 5 5 5 4 3 4 4 4 4 7 9 9 9 8 8 8 8 7 8 8 5 4 3 4 4 3 1 1 1 1 2 3 3 3 3 4 4 3 3
4 5 4 5 5 6 6 4 3 2 3 4 5 6 7 9 9 8 8 8 8 8 8 8 8 8 5 4 4 5 5 4 2 0 1 2 3 3 3 3 4 4 4
2 2 2 3 4 5 6 6 6 5 5 5 6 6 7 8 9 8 8 7 7 6 7 8 8 6 7 5 3 2 3 4 4 2 0 1 2 3 3 3 4 4 4
0 1 1 2 2 2 3 5 5 4 4 3 4 5 6 6 8 8 8 8 7 6 7 8 7 7 6 6 5 3 2 2 2 4 3 2 1 1 2 3 3 3 4
3 2 2 2 2 2 2 2 3 4 4 5 5 6 5 4 5 7 8 8 8 7 7 8 8 9 7 6 5 4 4 4 4 4 4 3 2 1 1 2 3 4 3
Wind_Direction
169 167 171 166 161 157 155 153 151 150 148 146 142 139 137 134 133 131 130 129 129 129 126 122 117 114 110 108 105 103 99 94 89 84 81 82 86 86 81 76 72 67 72
156 164 169 167 163 160 158 157 156 155 153 152 150 147 144 142 139 137 136 134 133 130 127 124 120 117 114 111 109 107 103 98 93 87 79 78 83 84 82 80 78 75 72
151 162 166 167 164 162 160 159 159 159 159 159 157 154 151 149 146 143 141 138 136 133 129 124 121 119 117 115 114 111 106 102 98 92 82 71 82 86 83 79 77 74 72
153 159 163 166 165 164 163 163 162 164 165 165 164 160 157 154 151 149 146 143 139 134 129 125 123 122 121 121 118 112 105 104 106 97 80 67 77 87 84 81 78 75 73
153 157 162 165 167 166 165 166 168 168 170 169 168 165 163 160 157 153 149 144 139 133 130 128 127 126 126 123 119 110 104 103 104 98 90 78 76 90 86 82 79 78 74
152 156 163 166 168 167 168 169 171 172 174 173 172 170 168 166 160 154 149 143 138 135 134 133 133 132 129 125 118 107 102 109 106 103 97 90 87 94 91 87 83 81 77
154 157 164 169 170 170 171 172 174 176 177 177 176 174 172 167 161 153 147 144 143 141 140 139 139 138 135 128 117 104 102 113 114 113 108 102 103 100 96 91 87 83 79
157 158 163 172 172 173 174 174 177 179 181 180 179 176 173 167 160 154 150 149 148 147 146 145 145 145 142 134 121 106 99 112 119 124 120 121 118 107 101 97 91 85 81
150 157 163 169 171 172 175 177 180 181 182 180 179 175 170 165 159 156 153 153 152 152 150 150 151 152 149 142 129 112 103 105 121 135 139 140 130 119 111 107 100 92 85
144 157 168 170 169 172 176 179 179 181 180 178 176 170 165 162 159 157 155 156 155 155 154 155 156 157 155 151 142 121 105 104 127 148 147 160 146 133 125 121 115 104 98
151 165 170 172 170 167 173 180 176 177 176 172 170 164 159 159 156 156 155 155 156 157 158 160 161 160 157 160 158 139 109 115 138 153 164 172 160 150 145 140 137 129 116
176 180 170 172 174 165 174 168 167 170 167 163 159 159 155 152 155 155 155 155 157 158 160 164 165 161 152 158 172 142 124 135 150 168 184 182 173 166 164 164 164 159 159
191 178 170 168 171 168 164 161 162 161 158 157 158 157 153 149 152 150 154 156 155 156 156 163 161 158 163 175 189 189 184 172 177 190 193 188 181 177 177 181 189 205 231
207 189 176 173 172 180 175 172 171 173 168 163 165 163 160 158 157 160 161 160 160 160 160 161 163 172 182 196 199 200 198 187 185 187 196 191 186 185 184 192 211 230 241
222 202 190 182 178 182 181 183 180 183 178 170 169 172 170 166 167 167 167 167 168 166 169 171 175 181 193 204 207 203 204 198 186 181 186 192 191 191 190 197 221 249 245
222 209 194 190 185 186 188 189 189 186 180 175 177 180 176 173 172 172 173 174 177 179 179 179 183 185 193 196 206 204 201 191 180 174 177 191 197 195 194 196 213 258 256
221 210 197 195 188 190 192 195 193 191 180 182 185 184 182 178 177 177 177 181 184 182 180 176 184 181 189 195 202 199 187 182 171 172 172 176 186 200 198 194 202 257 278
211 203 201 198 191 192 191 191 194 196 187 187 187 184 185 182 179 179 181 185 183 180 181 180 181 180 188 186 187 185 171 164 165 167 165 169 169 165 184 181 178 217 352
201 195 195 193 187 190 195 195 191 197 193 189 187 183 186 185 183 181 183 185 179 182 185 186 181 175 176 178 175 168 165 162 165 158 159 167 166 159 156 141 123 85 75
195 186 183 190 189 183 185 189 193 195 195 192 189 189 182 185 185 182 180 182 177 180 185 185 176 174 169 165 153 142 156 170 164 164 166 161 161 160 153 136 118 84 75
193 185 189 192 191 177 171 184 194 195 191 194 197 192 186 185 185 184 183 180 179 183 188 182 170 170 168 147 121 103 16 26 169 178 166 158 157 156 147 140 128 107 75
191 189 194 196 192 184 180 181 193 184 179 193 200 196 193 189 186 187 186 184 184 182 182 180 167 164 168 164 145 135 163 310 280 197 175 168 160 143 137 135 129 124 106
197 196 206 196 195 189 182 170 170 169 166 189 201 199 195 190 189 187 190 187 187 186 189 185 181 175 175 184 172 158 164 201 207 233 205 174 159 145 139 133 132 129 120
226 197 198 194 198 189 180 177 177 183 192 201 200 199 194 189 187 189 194 193 190 192 193 192 189 182 171 183 188 187 171 155 159 176 235 171 156 156 157 144 132 126 119
103 114 139 153 163 166 176 181 175 184 197 194 189 197 198 191 189 191 197 199 200 200 198 196 192 189 182 183 178 166 162 147 153 154 184 190 166 179 165 151 143 135 128
29 43 64 105 105 123 155 172 179 181 184 187 188 200 199 193 191 192 193 198 201 202 203 201 199 197 194 187 181 173 168 169 181 167 170 177 183 190 157 151 152 147 141